Location: �anc�
(47.8221°N, 1.2443°W)
Time: 04:00:05
(UTC+00:00)

Daily predictions for brighter satellites

Satellite Brightness Start Highest point End
(mag) Time Altitude Azimuth Time Altitude Azimuth Time Altitude Azimuth
CENTAUR R/B 4.5 03:29:42 27° NNE 03:29:42 27° NNE 03:36:21 10° ENE
Cosmos 2297 Rocket 4.0 04:09:45 23° SE 04:09:45 23° SE 04:11:52 10° SE
Cosmos 2227 Rocket 3.6 04:20:51 31° SE 04:20:51 31° SE 04:23:43 10° SE
Cosmos 2074 Rocket 4.2 04:31:13 48° NNE 04:32:53 68° ENE 04:39:04 10° SSE
Cosmos 1656 4.1 04:36:46 57° E 04:36:46 57° E 04:41:39 10° NNE
SL-4 R/B 4.4 04:45:25 19° E 04:45:25 19° E 04:46:32 10° E
NOSS 3-1 (A) 4.4 04:54:09 35° N 04:54:09 35° N 04:59:21 10° NE
ATLAS 3B R/B 4.0 04:52:25 23° NNW 04:55:14 30° NNE 05:01:10 10° E
COSMO-SKYMED 1 3.2 04:56:05 10° SSE 04:59:35 52° ESE 04:59:35 52° ESE
NOSS 3-2 (A) 4.3 04:59:33 33° NNW 05:03:11 65° NE 05:11:25 10° SE
Lacrosse 5 rocket 2.8 05:05:38 33° NNE 05:05:38 33° NNE 05:08:34 10° NE
USA 215 3.2 04:59:24 10° SE 05:05:55 69° SW 05:07:02 59° W
CZ-2C R/B 4.4 05:01:16 10° N 05:02:29 18° N 05:02:29 18° N
Cosmos 1980 Rocket 3.7 05:04:22 10° S 05:09:30 36° ESE 05:14:38 10° NE
ALOS 3.0 05:07:42 10° NNE 05:12:18 53° E 05:16:51 10° S
Cosmos 1758 4.2 05:13:26 43° NE 05:13:26 43° NE 05:16:18 10° NNE
FENGYUN 3A 4.3 05:08:32 10° NNE 05:13:51 55° E 05:19:08 10° S
Cosmos 783 Rocket 4.3 05:16:08 68° SW 05:16:44 79° WNW 05:21:59 10° NNE
Cosmos 1697 Rocket 2.8 05:13:31 15° SSW 05:18:11 73° ESE 05:23:47 10° NNE
SWAS 4.4 05:18:55 81° ENE 05:18:55 81° ENE 05:23:09 10° SSE
Cosmos 1953 3.5 05:15:57 10° SSE 05:19:47 43° E 05:23:39 10° NNE
Cosmos 2327 Rocket 4.3 05:15:47 10° NNW 05:22:05 76° W 05:28:16 10° S
CENTAUR R/B 3.7 05:16:53 22° NNW 05:22:06 53° NE 05:30:30 10° ESE
Cosmos 1726 4.4 05:23:01 10° SSE 05:26:06 26° E 05:29:12 10° NNE
Nadezhda 1 Rocket 3.8 05:20:51 10° S 05:26:57 84° W 05:33:04 10° N
Meteor 1-22 Rocket 4.5 05:27:22 45° WSW 05:28:33 52° WNW 05:34:32 10° N
ATLAS 2AS CENTAUR R/B 4.5 05:23:30 10° S 05:30:36 37° ESE 05:37:45 10° NE
Abrixas rocket 3.2 05:32:51 41° E 05:32:51 41° E 05:34:59 10° E
ADEOS Rocket 3.8 05:28:38 10° SE 05:33:48 44° ENE 05:39:07 10° N
CZ-3 R/B 4.1 05:23:32 16° WSW 05:34:14 27° SSW 05:40:33 10° SE
PSLV R/B 4.3 05:31:41 10° N 05:34:28 44° N 05:34:28 44° N
SJ-12 3.7 05:31:56 10° NNE 05:36:01 83° WNW 05:40:05 10° SSW
Cosmos 2082 3.8 05:35:55 45° WNW 05:36:58 50° WSW 05:42:27 10° S
Cosmos 773 Rocket 3.9 05:31:49 10° SSW 05:37:08 87° WNW 05:42:27 10° NNE
USA 238 DEB 3.8 05:34:14 27° NW 05:38:32 86° SW 05:45:58 10° SE
USA 238 3.8 05:34:20 27° NW 05:38:38 87° SW 05:46:04 10° SE
Cosmos 1602 Rocket 4.1 05:39:57 39° SW 05:39:57 39° SW 05:43:02 10° S
CZ-4B DEB 4.3 05:33:53 10° NNE 05:39:29 80° ESE 05:45:01 10° SSW
Cosmos 2228 4.2 05:37:56 10° SSE 05:42:07 44° E 05:46:19 10° NNE
BREEZE-M DEB (TANK) 4.0 05:30:49 12° WSW 05:44:44 85° SSE 05:49:22 10° ENE
Cosmos 2184 Rocket 4.4 05:44:05 28° NW 05:46:24 38° W 05:52:04 10° SSW
Meteor 2-17 Rocket 4.3 05:41:04 10° NNW 05:47:11 76° W 05:53:13 10° S
SKYMED 2 3.9 05:44:20 10° S 05:48:09 41° WSW 05:48:09 41° WSW
Cosmos 1470 3.7 05:50:20 31° NNW 05:50:20 31° NNW 05:52:45 10° N
Cosmos 2297 Rocket 3.6 05:51:37 20° SW 05:51:37 20° SW 05:54:09 10° SSW
Cosmos 1953 Rocket 4.2 05:45:39 10° N 05:50:04 58° ENE 05:54:25 10° SSE
Okean O Rocket 1.8 05:48:41 10° NNE 05:53:10 73° ESE 05:57:35 10° S
Cosmos 2344 3.5 05:46:49 10° SW 05:54:18 76° NW 06:02:43 10° NE
Cosmos 2154 Rocket 4.1 05:48:19 10° NNW 05:54:18 52° W 06:00:15 10° SSW
Cosmos 1758 Rocket 3.4 05:51:30 12° NNW 05:55:29 76° W 05:59:53 10° S
NOSS 2-2 (D) 3.1 05:54:41 26° SW 05:56:39 89° SE 06:00:49 10° NE
Cosmos 2360 4.1 05:55:04 10° SSW 06:00:48 81° WNW 06:06:35 10° NNE
Cosmos 2227 Rocket 3.6 06:02:45 19° WSW 06:02:45 19° WSW 06:05:37 10° SSW
USA 32 4.0 05:56:31 10° N 06:01:48 90° W 06:07:03 10° S
STARLINK-43 3.6 06:01:05 42° WNW 06:01:51 50° NNW 06:05:29 10° ENE
Helios 1A Rocket 3.2 05:58:02 10° NNE 06:02:09 70° ESE 06:06:16 10° S
Cosmos 1328 4.3 05:58:32 10° N 06:02:30 60° ENE 06:06:26 10° SSE
Cosmos 44 Rocket 3.7 06:05:35 30° WNW 06:07:07 39° WSW 06:11:31 10° S
Cosmos 1538 Rocket 4.0 06:03:32 10° SSW 06:08:51 66° WNW 06:14:09 10° NNE
USA 116 4.4 06:05:30 10° S 06:10:12 45° W 06:13:37 15° NNW
Cosmos 2263 Rocket 2.4 06:04:49 10° NNW 06:10:28 70° ENE 06:16:07 10° SE
SMAP 4.0 06:08:40 10° NNE 06:13:13 50° E 06:17:44 10° S
STARLINK-48 3.3 06:13:02 24° WSW 06:15:16 81° NNW 06:19:11 10° ENE
STARLINK-80 3.4 06:14:05 29° W 06:15:51 63° NNW 06:19:39 10° ENE
Cosmos 1959 Rocket 4.5 06:10:28 10° N 06:16:36 86° E 06:22:45 10° S
BREEZE-M DEB (TANK) 4.2 06:15:09 26° WNW 06:17:14 85° SSW 06:26:57 10° ESE
STARLINK-46 4.3 06:18:53 15° SSW 06:18:53 15° SSW 06:19:44 10° S
Cosmos 2058 Rocket 3.6 06:14:16 10° S 06:18:36 62° E 06:22:57 10° NNE
Cosmos 2278 3.8 06:14:13 10° SW 06:19:48 55° WNW 06:25:26 10° NNE
Cosmos 1825 Rocket 3.8 06:17:50 10° NNW 06:21:59 45° W 06:26:07 10° SSW
SL-4 R/B 1.8 06:21:02 27° W 06:22:44 56° SSW 06:26:05 10° SE
COSMOS 2455 2.8 06:18:04 10° SW 06:24:05 85° WNW 06:30:10 10° NNE
Cosmos 1844 Rocket 4.5 06:20:03 10° N 06:24:45 26° NE 06:29:27 10° ESE
Cosmos 2366 rocket 4.0 06:18:49 10° N 06:25:12 86° W 06:31:34 10° S
Cosmos 2369 4.2 06:22:36 10° WSW 06:27:54 38° NW 06:33:16 10° NNE
NOSS 3-2 (C) 4.1 06:23:50 12° NW 06:30:49 72° SW 06:39:10 10° SSE
NOAA 6 4.1 06:26:36 10° N 06:31:40 53° WNW 06:36:41 10° SW
SL-16 R/B 3.2 06:28:29 10° S 06:33:56 51° ESE 06:39:25 10° NE
NOSS 2-2 (C) 3.6 06:32:17 13° WSW 06:35:22 43° NW 06:39:28 10° NNE
COSMO-SKYMED 1 4.2 06:34:30 10° SW 06:36:49 15° W 06:36:49 15° W
YAOGAN 6 4.3 06:33:39 10° NNE 06:37:00 36° E 06:40:16 10° SSE
H-2A R/B 2.7 06:33:14 10° N 06:37:11 78° WNW 06:41:04 10° SSW
STARLINK-32 4.5 06:34:57 10° SW 06:38:51 49° SE 06:42:46 10° ENE
CZ-4 R/B 4.0 06:36:11 10° NE 06:39:44 26° E 06:43:17 10° SSE
Envisat 3.8 06:35:25 10° NNE 06:40:26 56° E 06:45:25 10° S
STARLINK-40 4.4 06:36:37 10° SW 06:40:31 51° SE 06:44:26 10° ENE
CZ-4B R/B 3.4 06:35:26 10° N 06:40:52 52° WNW 06:46:10 10° SW
Meteor 1-16 Rocket 4.4 06:35:28 10° SSW 06:41:19 60° WNW 06:47:09 10° N
STARLINK-44 4.4 06:38:13 10° SW 06:42:08 52° SE 06:46:04 10° ENE
Cosmos 1606 Rocket 3.9 06:38:02 10° SW 06:42:15 41° WNW 06:46:28 10° N
STARLINK-60 3.8 06:40:22 16° NW 06:42:47 44° NNE 06:46:02 10° E
Cosmos 1680 Rocket 3.6 06:37:45 10° SSW 06:43:05 88° ESE 06:48:27 10° NNE
STARLINK-37 4.2 06:39:58 10° SW 06:43:55 56° SE 06:47:52 10° ENE
Lacrosse 5 rocket 2.9 06:41:17 14° NW 06:44:20 25° N 06:48:04 10° NE
STARLINK-42 4.1 06:40:59 10° SW 06:44:44 56° SE 06:48:30 10° ENE
Meteor 1-11 4.2 06:39:22 10° NNW 06:44:58 73° W 06:50:33 10° S
STARLINK-33 3.9 06:41:28 10° SW 06:45:04 57° SSE 06:48:41 10° ENE
Cosmos 1726 Rocket 3.8 06:40:51 10° SSW 06:45:09 47° WNW 06:49:27 10° N
Cosmos 1371 Rocket 4.1 06:39:54 10° NNW 06:45:12 87° ENE 06:50:33 10° SSE
STARLINK-64 4.1 06:41:39 10° SW 06:45:24 55° SE 06:49:11 10° ENE
STARLINK-36 4.3 06:41:33 10° SW 06:45:29 55° SE 06:49:26 10° ENE
NOSS 3-4 (A) 3.8 06:40:00 10° SSW 06:45:55 69° SE 06:52:15 10° NE
STARLINK-26 3.1 06:42:26 10° WSW 06:45:58 77° NNW 06:49:30 10° ENE
NOSS 3-4 (C) 3.8 06:40:07 10° SSW 06:46:02 69° SE 06:52:21 10° NE
NOSS 2-2 (E) 4.1 06:43:30 12° W 06:46:35 32° NW 06:50:37 10° NNE
ATLAS 3B R/B 2.7 06:40:02 10° NW 06:46:47 88° NE 06:53:42 10° SE
Cosmos 2360 Rocket 4.5 06:42:25 10° SSE 06:47:15 30° ESE 06:52:06 10° NE
STARLINK-68 4.1 06:43:20 10° SW 06:47:18 61° SSE 06:51:17 10° ENE
EXPRESS MD2 2.3 06:45:22 15° W 06:47:32 56° N 06:49:41 10° ENE
STARLINK-63 4.1 06:44:54 10° SW 06:48:52 60° SE 06:52:51 10° ENE
ALOS 3.4 06:45:52 10° NNW 06:49:23 21° WNW 06:52:52 10° WSW
STARLINK-66 3.8 06:46:17 10° SW 06:49:53 63° SSE 06:53:30 10° ENE
STARLINK-35 4.1 06:46:29 10° SW 06:50:26 59° SE 06:54:25 10° ENE
FALCON 9 DEB 4.0 06:47:53 14° NW 06:50:42 40° NNE 06:54:03 10° E
AQUARIUS 4.1 06:47:08 10° N 06:51:38 76° WNW 06:56:07 10° SSW
Cosmos 1908 3.3 06:48:04 10° SSW 06:51:55 54° WNW 06:55:46 10° N
STARLINK-51 4.1 06:48:05 10° SW 06:52:04 61° SE 06:56:02 10° ENE
Cosmos 2181 Rocket 4.2 06:47:05 10° SSW 06:53:04 50° WNW 06:59:12 10° N
Cosmos 1703 3.8 06:49:29 10° NNW 06:53:10 37° W 06:56:49 10° SSW
Cosmos 1980 Rocket 2.6 06:48:02 10° SW 06:53:25 43° NW 06:58:50 10° NNE
STARLINK-30 4.0 06:49:45 10° SW 06:53:43 63° SSE 06:57:43 10° ENE
Cosmos 1300 3.7 06:50:50 10° S 06:54:33 52° E 06:58:16 10° NNE
STARLINK-55 3.6 06:51:40 10° SW 06:55:17 70° SSE 06:58:55 10° ENE
STARLINK-72 4.0 06:51:23 10° SW 06:55:22 64° SSE 06:59:22 10° ENE
Cosmos 1953 3.7 06:53:34 10° WSW 06:56:25 18° WNW 06:59:18 10° NNW
STARLINK-50 4.0 06:53:01 10° SW 06:57:01 66° SSE 07:01:01 10° ENE
STARLINK-61 3.5 06:54:15 10° WSW 06:58:13 86° NNW 07:02:13 10° ENE
STARLINK-59 3.9 06:54:46 10° SW 06:58:46 70° SSE 07:02:47 10° ENE
Cosmos 2112 Rocket 4.0 06:53:38 10° SSW 06:58:59 81° WNW 07:04:23 10° NNE
STARLINK-56 3.9 06:56:19 10° SW 07:00:18 69° SSE 07:04:20 10° ENE
Cosmos 1726 3.2 06:58:16 10° SW 07:01:18 24° WNW 07:04:19 10° NNW
Starlink (trailer) 3.8 06:57:59 10° SW 07:01:59 71° SSE 07:06:00 10° ENE
STARLINK-29 4.0 06:58:53 11° WNW 07:02:10 41° NNE 07:05:33 10° E
STARLINK-52 4.0 06:59:17 10° WNW 07:02:34 40° NNE 07:05:54 10° E
Cosmos 1697 Rocket 3.7 06:58:13 10° W 07:02:44 24° NW 07:07:16 10° N
STARLINK-38 3.8 06:59:37 10° SW 07:03:38 73° SSE 07:07:39 10° ENE
STARLINK-65 3.8 07:01:15 10° SW 07:05:16 74° SSE 07:09:18 10° ENE
STARLINK-53 3.7 07:02:59 10° SW 07:07:00 78° SSE 07:11:02 10° ENE
STARLINK-28 3.2 07:04:07 10° WSW 07:07:40 87° SSE 07:11:15 10° ENE
Abrixas rocket 2.5 07:04:43 10° W 07:07:40 52° SSW 07:10:39 10° ESE
CZ-2C R/B 3.7 07:03:26 10° SE 07:08:26 47° ENE 07:13:34 10° N
Cosmos 158 Rocket 3.8 07:07:06 10° SSW 07:11:59 82° WNW 07:16:56 10° NNE
Genesis I 3.3 07:08:49 10° NW 07:12:41 63° SW 07:16:27 10° SSE
RESURS DK-1 4.0 07:09:12 10° S 07:13:05 41° ESE 07:16:59 10° NE
CENTAUR R/B 3.5 07:05:18 10° NW 07:13:08 56° WSW 07:21:34 10° SSE
Cosmos 1437 2.8 07:10:44 10° N 07:13:47 72° ENE 07:16:48 10° SSE
STARLINK-75 3.5 07:10:04 10° WSW 07:13:58 89° NNW 07:17:54 10° ENE
CZ-2C R/B 3.9 07:09:59 10° S 07:14:31 55° W 07:19:01 10° NNW
Cosmos 1624 Rocket 4.1 07:10:01 10° NNW 07:15:11 62° WSW 07:20:17 10° S
